Flag for Brazil Weather past 2 weeks in Juiz de Fora, Minas Gerais, Brazil

Now
81 °F

Partly sunny.


Feels Like: 82 °F
Forecast: 67 / 84 °F
Wind: 6 mph from West

Location: Galeao

Current Time: Dec 19, 2014 at 9:10:26 AM

Latest Report: Dec 19, 2014 at 8:00 AM


Visibility: N/A

Pressure: 29.80 "Hg

Humidity: 54%

Dew point: 63 °F

Location of Juiz de ForaLocation

Historic Weather in Juiz de Fora — Graph

°F

Juiz de Fora temperature yesterday

Maximum temperature yesterday: 93 °F (at 1:00 PM)
Minimum temperature yesterday: 72 °F (at 4:00 AM)
Average temperature yesterday: 81 °F

Past Weeks' High & Low Weather Summary

 TemperatureHumidityPressure
High97 °F (Dec 9, 3:00 PM)94% (Dec 5, 8:00 AM)30.07 "Hg (Dec 5, 8:00 AM)
Low68 °F (Dec 5, 7:00 AM)22% (Dec 11, 2:00 PM)29.68 "Hg (Dec 18, 5:00 PM)
Average80 °F63%29.89 "Hg
* Reported Dec 4 8:00 AM — Dec 19 8:00 AM, Juiz de Fora, Weather by CustomWeather, © 2014

Note: Actual official high and low records may vary slightly from our data, if they occured in-between our weather recording intervals... More about our weather records

Advertising

Juiz de Fora weather history for previous 24 hours

 ConditionsComfort  
Time TempWeatherWind HumidityBarometerVisibility
8:00 AM
Dec 19
81 °FPartly sunny.6 mph54%29.80 "HgN/A
7:00 AM79 °FSunny.7 mph58%29.80 "Hg10 mi
6:00 AM77 °FClear.3 mph65%29.77 "Hg10 mi
5:00 AM75 °FClear.5 mph74%29.77 "Hg10 mi
4:00 AM77 °FClear.5 mph69%29.77 "Hg10 mi
3:00 AM77 °FClear.5 mph69%29.77 "Hg10 mi
2:00 AM77 °FClear.6 mph69%29.80 "Hg10 mi
1:00 AM77 °FClear.7 mph69%29.80 "Hg10 mi
12:00 AM81 °FClear.10 mph58%29.80 "Hg10 mi
11:00 PM
Dec 18
79 °FClear.13 mph61%29.80 "Hg10 mi
10:00 PM81 °FClear.16 mph51%29.77 "Hg10 mi
9:00 PM81 °FClear.13 mph58%29.74 "Hg10 mi
8:00 PM82 °FClear.16 mph51%29.74 "Hg10 mi
7:00 PM88 °FSunny.9 mph38%29.71 "Hg10 mi
6:00 PM88 °FPassing clouds.13 mph38%29.68 "HgN/A
5:00 PM88 °FPassing clouds.15 mph43%29.68 "HgN/A
4:00 PM90 °FPassing clouds.17 mph38%29.71 "HgN/A
3:00 PM91 °FPassing clouds.15 mph34%29.71 "HgN/A
2:00 PM93 °FPassing clouds.12 mph34%29.74 "HgN/A
1:00 PM93 °FPassing clouds.8 mph32%29.77 "HgN/A
12:00 PM90 °FSunny.6 mph41%29.80 "Hg10 mi
11:00 AM88 °FSunny.3 mph46%29.83 "Hg10 mi
10:00 AM82 °FSunny.6 mph58%29.83 "Hg10 mi
9:00 AM81 °FClear.3 mph62%29.83 "Hg5 mi
Weather by CustomWeather, © 2014

See weather overviewHow to use our weather pages